DLH1317 DAAG-EDDF

Flight info

Callsign DLH1317
Flight time N/A
Altitude 38000
Route OTARO1B OTARO DCT RISEP DCT LUNOR DCT ZETCO DCT LERMA DCT PIGOS DCT EKSID DCT NOSTA DCT NOPMU DCT ABESI DCT LADOL T163 EMPAX EMPAX5B
Aircraft A346/H-SDE2E3FGHIJ3J4J5M1RWXY/LB1D1

Departure

Time N/A
Airport Houari Boumediene Airport (DAAG)

Arrival

Time 2026-05-06 22:04
Airport Frankfurt Main Airport (EDDF)
Time Latitude Longitude Altitude Speed Heading
2026-05-06 21:16 47.09815 9.00186 37930 ft 499 kts 356°
2026-05-06 21:17 47.13258 9.00033 37925 ft 499 kts 356°
2026-05-06 21:17 47.16741 8.99879 37926 ft 499 kts 356°
2026-05-06 21:19 47.41033 8.98791 37922 ft 499 kts 356°
2026-05-06 21:19 47.47978 8.98477 37921 ft 499 kts 356°
2026-05-06 21:20 47.54923 8.98163 37921 ft 499 kts 356°
2026-05-06 21:20 47.61877 8.97849 37918 ft 499 kts 356°
2026-05-06 21:21 47.68840 8.97531 37921 ft 500 kts 356°
2026-05-06 21:21 47.75811 8.97211 37916 ft 502 kts 356°
2026-05-06 21:21 47.79309 8.97052 37814 ft 503 kts 356°
2026-05-06 21:22 47.82797 8.96893 37550 ft 503 kts 356°
2026-05-06 21:22 47.86288 8.96735 37281 ft 503 kts 356°
2026-05-06 21:22 47.89790 8.96574 37015 ft 504 kts 356°
2026-05-06 21:22 47.93255 8.96415 36763 ft 505 kts 356°
2026-05-06 21:23 47.96806 8.96252 36498 ft 505 kts 356°
2026-05-06 21:23 48.00275 8.96093 36251 ft 506 kts 356°
2026-05-06 21:23 48.03794 8.95931 36002 ft 505 kts 356°
2026-05-06 21:23 48.06158 8.95822 35844 ft 500 kts 356°
2026-05-06 21:24 48.11090 8.95592 35369 ft 491 kts 356°
2026-05-06 21:24 48.14486 8.95471 34899 ft 492 kts 358°
2026-05-06 21:24 48.17913 8.95591 34344 ft 493 kts
2026-05-06 21:24 48.21354 8.95984 33714 ft 495 kts
2026-05-06 21:25 48.24773 8.96490 33004 ft 496 kts
2026-05-06 21:25 48.28211 8.97031 32347 ft 496 kts
2026-05-06 21:25 48.31599 8.97566 31720 ft 496 kts
2026-05-06 21:25 48.35041 8.98101 31108 ft 495 kts
2026-05-06 21:26 48.38461 8.98630 30501 ft 494 kts
2026-05-06 21:26 48.41888 8.99155 29815 ft 494 kts
2026-05-06 21:26 48.45300 8.99677 29068 ft 494 kts
2026-05-06 21:26 48.48690 9.00194 28385 ft 491 kts
2026-05-06 21:27 48.52101 9.00715 27734 ft 488 kts
2026-05-06 21:27 48.55454 9.01228 27303 ft 481 kts
2026-05-06 21:27 48.58754 9.01733 26829 ft 476 kts
2026-05-06 21:27 48.62040 9.02249 26388 ft 471 kts
2026-05-06 21:28 48.65263 9.02915 25961 ft 466 kts
2026-05-06 21:28 48.68402 9.03649 25546 ft 461 kts
2026-05-06 21:28 48.71572 9.04416 25121 ft 457 kts
2026-05-06 21:28 48.74685 9.05172 24696 ft 453 kts
2026-05-06 21:29 48.77783 9.05921 24260 ft 449 kts
2026-05-06 21:29 48.80860 9.06661 23849 ft 445 kts
2026-05-06 21:29 48.83904 9.07391 23408 ft 442 kts
2026-05-06 21:29 48.86913 9.08111 22945 ft 437 kts
2026-05-06 21:30 48.89931 9.08683 22473 ft 434 kts
2026-05-06 21:30 48.92918 9.09130 22022 ft 432 kts
2026-05-06 21:30 48.95884 9.09546 21624 ft 433 kts
2026-05-06 21:30 48.98929 9.09971 21129 ft 430 kts
2026-05-06 21:31 49.01899 9.10386 20658 ft 426 kts
2026-05-06 21:31 49.04841 9.10802 20107 ft 424 kts
2026-05-06 21:31 49.07765 9.11215 19595 ft 421 kts
2026-05-06 21:31 49.10679 9.11629 19087 ft 419 kts
2026-05-06 21:32 49.13573 9.12046 18571 ft 417 kts
2026-05-06 21:32 49.19350 9.12872 17382 ft 415 kts
2026-05-06 21:32 49.22192 9.13278 16716 ft 415 kts
2026-05-06 21:33 49.25070 9.13690 16115 ft 414 kts
2026-05-06 21:33 49.27893 9.14193 15854 ft 404 kts
2026-05-06 21:33 49.30624 9.14948 15730 ft 392 kts 11°
2026-05-06 21:33 49.33284 9.15852 14965 ft 396 kts 12°
2026-05-06 21:34 49.36004 9.16828 14150 ft 403 kts 12°
2026-05-06 21:34 49.38725 9.17811 13650 ft 400 kts 13°
2026-05-06 21:34 49.41421 9.18776 13150 ft 395 kts 12°
2026-05-06 21:34 49.44093 9.19735 12596 ft 392 kts 12°
2026-05-06 21:35 49.46706 9.20667 12093 ft 388 kts 12°
2026-05-06 21:35 49.49341 9.21608 11498 ft 383 kts 12°
2026-05-06 21:35 49.51862 9.22503 11036 ft 374 kts 12°
2026-05-06 21:35 49.54345 9.23389 10831 ft 356 kts 12°
2026-05-06 21:36 49.56688 9.24229 10840 ft 335 kts 11°
2026-05-06 21:36 49.58861 9.25005 10839 ft 315 kts 11°
2026-05-06 21:36 49.60934 9.25746 10831 ft 298 kts 12°
2026-05-06 21:36 49.62950 9.26466 10837 ft 298 kts 11°
2026-05-06 21:37 49.64965 9.27187 10846 ft 298 kts 11°
2026-05-06 21:37 49.66970 9.27909 10877 ft 298 kts 12°
2026-05-06 21:37 49.69013 9.28647 10860 ft 297 kts 12°
2026-05-06 21:37 49.71006 9.29369 10844 ft 297 kts 12°
2026-05-06 21:38 49.73020 9.30098 10850 ft 297 kts 12°
2026-05-06 21:38 49.75035 9.30829 10850 ft 297 kts 12°
2026-05-06 21:38 49.77044 9.31558 10834 ft 295 kts 11°
2026-05-06 21:38 49.79015 9.32278 10609 ft 289 kts 12°
2026-05-06 21:39 49.80935 9.32982 10404 ft 278 kts 12°
2026-05-06 21:39 49.82786 9.33670 10215 ft 269 kts 11°
2026-05-06 21:39 49.84585 9.34352 9899 ft 265 kts 11°
2026-05-06 21:39 49.86367 9.35040 9515 ft 263 kts 12°
2026-05-06 21:40 49.88143 9.35732 9131 ft 261 kts 12°
2026-05-06 21:40 49.89899 9.36421 8712 ft 260 kts 12°
2026-05-06 21:40 49.91668 9.36935 8326 ft 255 kts 353°
2026-05-06 21:40 49.93277 9.36051 7891 ft 243 kts 314°
2026-05-06 21:41 49.94232 9.33990 7540 ft 233 kts 287°
2026-05-06 21:41 49.94537 9.31552 7189 ft 229 kts 272°
2026-05-06 21:41 49.94660 9.29098 6832 ft 227 kts 272°
2026-05-06 21:41 49.94795 9.26661 6478 ft 225 kts 273°
2026-05-06 21:42 49.94948 9.24251 6108 ft 224 kts 274°
2026-05-06 21:42 49.95112 9.21868 5751 ft 221 kts 274°
2026-05-06 21:42 49.95282 9.19528 5386 ft 219 kts 275°
2026-05-06 21:42 49.95455 9.17190 5064 ft 216 kts 275°
2026-05-06 21:43 49.95628 9.14892 4981 ft 214 kts 275°
2026-05-06 21:43 49.95800 9.12613 5000 ft 210 kts 275°
2026-05-06 21:43 49.95968 9.10350 4977 ft 211 kts 275°
2026-05-06 21:43 49.96140 9.08078 4977 ft 212 kts 276°
2026-05-06 21:44 49.96313 9.05795 4978 ft 212 kts 276°
2026-05-06 21:44 49.96537 9.03554 4929 ft 206 kts 287°
2026-05-06 21:44 49.97182 9.01647 4925 ft 197 kts 308°
2026-05-06 21:44 49.98185 9.00208 4789 ft 194 kts 320°
2026-05-06 21:45 49.99260 8.98992 4648 ft 187 kts 321°
2026-05-06 21:45 50.00313 8.97819 4429 ft 182 kts 320°
2026-05-06 21:45 50.00958 8.97001 4284 ft 178 kts 316°
2026-05-06 21:45 50.01822 8.95661 4069 ft 173 kts 309°
2026-05-06 21:46 50.02785 8.93764 3878 ft 167 kts 306°
2026-05-06 21:46 50.03484 8.92314 3786 ft 167 kts 306°
2026-05-06 21:46 50.03945 8.91356 3712 ft 166 kts 306°
2026-05-06 21:46 50.04633 8.89916 3586 ft 165 kts 306°
2026-05-06 21:47 50.05307 8.88505 3479 ft 162 kts 305°
2026-05-06 21:47 50.05859 8.86984 3365 ft 161 kts 291°
2026-05-06 21:47 50.06123 8.85396 3285 ft 162 kts 278°
2026-05-06 21:47 50.06236 8.83635 3272 ft 162 kts 276°
2026-05-06 21:48 50.06324 8.81908 3267 ft 161 kts 276°
2026-05-06 21:48 50.06408 8.80163 3227 ft 161 kts 276°
2026-05-06 21:48 50.06495 8.78422 3201 ft 161 kts 276°
2026-05-06 21:48 50.06582 8.76683 3179 ft 161 kts 276°
2026-05-06 21:49 50.06670 8.74933 3146 ft 161 kts 276°
2026-05-06 21:49 50.06766 8.73116 3149 ft 179 kts 276°
2026-05-06 21:49 50.06882 8.71062 3195 ft 189 kts 277°
2026-05-06 21:49 50.06651 8.69141 2974 ft 182 kts 247°
2026-05-06 21:50 50.06167 8.67352 2826 ft 168 kts 250°
2026-05-06 21:50 50.05724 8.65723 2946 ft 160 kts 250°
2026-05-06 21:50 50.05326 8.64131 2987 ft 159 kts 252°
2026-05-06 21:50 50.04931 8.62524 3017 ft 159 kts 251°
2026-05-06 21:51 50.04526 8.60921 3028 ft 160 kts 260°
2026-05-06 21:51 50.04723 8.59300 3143 ft 157 kts 306°
2026-05-06 21:51 50.05538 8.58189 3446 ft 159 kts 327°
2026-05-06 21:51 50.06380 8.57050 4043 ft 160 kts 309°
2026-05-06 21:52 50.07238 8.55951 4663 ft 165 kts 338°
2026-05-06 21:52 50.08399 8.55848 4989 ft 174 kts
2026-05-06 21:52 50.09575 8.56339 4985 ft 177 kts 24°
2026-05-06 21:52 50.10636 8.57317 5006 ft 178 kts 31°
2026-05-06 21:53 50.11700 8.58478 5031 ft 194 kts 33°
2026-05-06 21:53 50.12809 8.59706 5022 ft 196 kts 33°
2026-05-06 21:53 50.13927 8.60939 5014 ft 197 kts 33°
2026-05-06 21:53 50.14912 8.62409 4990 ft 200 kts 64°
2026-05-06 21:54 50.15243 8.64512 5009 ft 200 kts 83°
2026-05-06 21:54 50.15353 8.66674 5007 ft 199 kts 85°
2026-05-06 21:54 50.15459 8.68837 4994 ft 200 kts 84°
2026-05-06 21:54 50.15621 8.70992 4993 ft 201 kts 81°
2026-05-06 21:55 50.15857 8.73138 4993 ft 200 kts 79°
2026-05-06 21:55 50.16106 8.75261 4994 ft 199 kts 79°
2026-05-06 21:55 50.16353 8.77392 4990 ft 200 kts 79°
2026-05-06 21:55 50.16599 8.79548 4986 ft 201 kts 79°
2026-05-06 21:56 50.16842 8.81696 4993 ft 200 kts 79°
2026-05-06 21:56 50.17080 8.83833 4986 ft 199 kts 79°
2026-05-06 21:56 50.17318 8.85967 4983 ft 200 kts 80°
2026-05-06 21:56 50.17551 8.88077 4984 ft 200 kts 80°
2026-05-06 21:57 50.17781 8.90219 4979 ft 200 kts 85°
2026-05-06 21:57 50.17527 8.92310 4972 ft 199 kts 123°
2026-05-06 21:57 50.16518 8.93701 4983 ft 195 kts 155°
2026-05-06 21:57 50.15262 8.94494 4990 ft 194 kts 162°
2026-05-06 21:58 50.13978 8.95104 4976 ft 192 kts 176°
2026-05-06 21:58 50.12746 8.94624 4709 ft 182 kts 214°
2026-05-06 21:58 50.11437 8.93071 4195 ft 183 kts 220°
2026-05-06 21:58 50.10430 8.91843 3822 ft 184 kts 220°
2026-05-06 21:59 50.09403 8.90654 3465 ft 184 kts 219°
2026-05-06 21:59 50.08365 8.89485 3100 ft 184 kts 218°
2026-05-06 21:59 50.07342 8.88361 2996 ft 176 kts 221°
2026-05-06 21:59 50.06547 8.86989 3002 ft 172 kts 244°
2026-05-06 22:00 50.06168 8.85280 2931 ft 163 kts 266°
2026-05-06 22:00 50.06169 8.83530 2558 ft 163 kts 276°
2026-05-06 22:00 50.06235 8.82357 2321 ft 164 kts 277°
2026-05-06 22:00 50.06377 8.80013 1999 ft 160 kts 276°
2026-05-06 22:01 50.06474 8.78306 1853 ft 153 kts 276°
2026-05-06 22:01 50.06561 8.76719 1700 ft 143 kts 275°
2026-05-06 22:01 50.06643 8.75169 1641 ft 144 kts 275°
2026-05-06 22:01 50.06723 8.73607 1546 ft 144 kts 275°
2026-05-06 22:02 50.06777 8.72048 1467 ft 144 kts 269°
2026-05-06 22:02 50.06645 8.70517 1443 ft 146 kts 258°
2026-05-06 22:02 50.06376 8.68989 1419 ft 147 kts 256°
2026-05-06 22:02 50.06083 8.67466 1436 ft 148 kts 255°
2026-05-06 22:03 50.05754 8.65954 1402 ft 146 kts 251°
2026-05-06 22:03 50.05386 8.64478 1188 ft 147 kts 251°
2026-05-06 22:03 50.05037 8.62985 944 ft 147 kts 251°
2026-05-06 22:03 50.04671 8.61486 788 ft 148 kts 251°
2026-05-06 22:04 50.04321 8.59997 639 ft 148 kts 252°
2026-05-06 22:04 50.03956 8.58465 415 ft 147 kts 251°
2026-05-06 22:04 50.03651 8.57154 363 ft 98 kts 249°
2026-05-06 22:04 50.03490 8.56488 361 ft 43 kts 249°
2026-05-06 22:05 50.03436 8.56098 364 ft 35 kts 273°
2026-05-06 22:05 50.03459 8.55859 356 ft 0 kts 279°
2026-05-06 22:05 50.03459 8.55856 357 ft 2 kts 279°
2026-05-06 22:05 50.03470 8.55758 356 ft 15 kts 279°
2026-05-06 22:06 50.03482 8.55640 356 ft 0 kts 279°
2026-05-06 22:06 50.03485 8.55619 353 ft 3 kts 279°
2026-05-06 22:06 50.03490 8.55569 354 ft 6 kts 278°
2026-05-06 22:06 50.03489 8.55472 358 ft 11 kts 258°
2026-05-06 22:07 50.03461 8.55347 356 ft 13 kts 251°
2026-05-06 22:07 50.03422 8.55176 357 ft 17 kts 250°
2026-05-06 22:07 50.03375 8.54983 358 ft 21 kts 249°
2026-05-06 22:07 50.03316 8.54741 357 ft 20 kts 249°
2026-05-06 22:08 50.03300 8.54676 347 ft 0 kts 249°
2026-05-06 22:08 50.03295 8.54654 356 ft 7 kts 249°
2026-05-06 22:08 50.03277 8.54540 354 ft 11 kts 284°
2026-05-06 22:08 50.03363 8.54454 353 ft 18 kts 341°
2026-05-06 22:09 50.03496 8.54375 361 ft 24 kts 338°
2026-05-06 22:09 50.03651 8.54336 357 ft 13 kts 38°
2026-05-06 22:09 50.03697 8.54481 354 ft 16 kts 70°
2026-05-06 22:09 50.03739 8.54659 360 ft 18 kts 69°
2026-05-06 22:10 50.03787 8.54855 361 ft 20 kts 69°
2026-05-06 22:10 50.03822 8.55003 363 ft 15 kts 69°